Champery, Switzerland 16 day weather forecast

Slopes altitude range 950 m - 2300m

Number of lifts: 198 Pistes: 650km

In some cases the lift and piste totals shown are for the ski domain (e.g. Three Valleys) rather than individual resort (e.g. Courchevel)

Overview

The 16 day weather forecast is fully updated 4 times every day.

    • Mon 22 APR 2019
    • Mon 22
    • 1C 8C
    • Tue 23 APR 2019
    • Tue 23
    • 2C 7C
    • Wed 24 APR 2019
    • Wed 24
    • 2C 7C
    • Thu 25 APR 2019
    • Thu 25
    • 1C 7C
    • Fri 26 APR 2019
    • Fri 26
    • -3C -2C
    • Sat 27 APR 2019
    • Sat 27
    • -4C 2C
    • Sun 28 APR 2019
    • Sun 28
    • 1C 5C
    • Mon 29 APR 2019
    • Mon 29
    • 2C 9C
    • Tue 30 APR 2019
    • Tue 30
    • -3C 0C
    • Wed 01 MAY 2019
    • Wed 01
    • -4C 1C
    • Thu 02 MAY 2019
    • Thu 02
    • -3C 7C
    • Fri 03 MAY 2019
    • Fri 03
    • 0C 10C
    • Sat 04 MAY 2019
    • Sat 04
    • 1C 9C
    • Sun 05 MAY 2019
    • Sun 05
    • 3C 5C
    • Mon 06 MAY 2019
    • Mon 06
    • -2C 2C
    • Tue 07 MAY 2019
    • Tue 07
    • -5C -1C

Date:

Time Type 0°C level Temp Chill Snow Cloud Speed Gust Dir Press
3:00 2303m 0°C 0_9 1cm 96% 9mph 11mph 1013mB
6:00 2683m 0°C 0_8 1cm 98% 8mph 11mph 1012mB
9:00 2798m 1°C 1_8 0cm 98% 8mph 11mph 1008mB
12:00 2961m 8°C 8_8 0cm 96% 8mph 10mph 1006mB
15:00 3002m 9°C 9_8 0cm 84% 8mph 10mph 1004mB
18:00 2779m 9°C 9_8 0cm 88% 8mph 11mph 1004mB
21:00 2771m 2°C 2_8 1cm 98% 8mph 11mph 1004mB
0:00 2628m 2°C 2_8 1cm 99% 8mph 10mph 1003mB
3:00 2384m 1°C 1_7 1cm 100% 7mph 9mph 1001mB
6:00 2654m 0°C 0_7 1cm 100% 7mph 9mph 1001mB
9:00 2649m 2°C 2_6 1cm 99% 6mph 8mph 1000mB
12:00 2783m 7°C 7_5 0cm 99% 5mph 6mph 1000mB
15:00 2776m 7°C 7_6 0cm 98% 6mph 7mph 1000mB
18:00 2719m 7°C 7_6 1cm 97% 6mph 7mph 1001mB
21:00 2731m 1°C 1_7 1cm 95% 7mph 10mph 1004mB
0:00 2659m 1°C 1_8 0cm 91% 8mph 10mph 1005mB
3:00 2276m 0°C 0_9 0cm 62% 9mph 11mph 1005mB
6:00 2662m 0°C 0_10 0cm 79% 10mph 14mph 1006mB
9:00 2741m 2°C 2_10 0cm 96% 10mph 13mph 1007mB
12:00 2692m 7°C 7_9 1cm 97% 9mph 13mph 1008mB
15:00 2576m 6°C 6_11 1cm 99% 11mph 14mph 1009mB
18:00 2569m 6°C 6_10 0cm 83% 10mph 13mph 1011mB
21:00 2157m -1°C -1_9 0cm 43% 9mph 12mph 1014mB
0:00 2183m -1°C -1_10 0cm 68% 10mph 13mph 1015mB
3:00 2148m -1°C -1_10 0cm 92% 10mph 13mph 1015mB
6:00 2286m -1°C -1_10 0cm 72% 10mph 14mph 1015mB
9:00 2541m 0°C 0_11 0cm 71% 11mph 13mph 1015mB
12:00 2668m 7°C 7_10 0cm 83% 10mph 12mph 1014mB
15:00 2668m 7°C 7_10 0cm 97% 10mph 12mph 1014mB
18:00 2610m 7°C 7_8 0cm 97% 8mph 11mph 1015mB
21:00 2621m 1°C 1_9 0cm 96% 9mph 13mph 1017mB
0:00 2258m 0°C 0_6 0cm 95% 6mph 8mph 1017mB
3:00 2068m -1°C -1_4 2cm 83% 4mph 5mph 1017mB
6:00 1746m -3°C -3_6 4cm 92% 6mph 8mph 1018mB
9:00 1769m -3°C -3_4 4cm 100% 4mph 5mph 1019mB
12:00 1841m -2°C -2_6 4cm 100% 6mph 7mph 1019mB
15:00 1882m -1°C -1_5 2cm 99% 5mph 7mph 1019mB
18:00 1767m -1°C -1_6 3cm 99% 6mph 8mph 1022mB
21:00 1643m -4°C -4_5 3cm 100% 5mph 8mph 1026mB
0:00 1568m -4°C -4_4 2cm 99% 4mph 6mph 1027mB
3:00 1394m -5°C -5_2 1cm 93% 2mph 4mph 1028mB
6:00 1491m -6°C -6_2 1cm 85% 2mph 2mph 1029mB
9:00 2025m -4°C -4_3 0cm 64% 3mph 4mph 1027mB
12:00 2240m 2°C 2_5 0cm 63% 5mph 6mph 1026mB
15:00 2337m 2°C 2_5 1cm 90% 5mph 6mph 1025mB
18:00 2350m 2°C 2_3 1cm 91% 3mph 4mph 1026mB
21:00 2160m -1°C -1_2 0cm 92% 2mph 2mph 1028mB
0:00 2030m -1°C -1_2 0cm 91% 2mph 3mph 1028mB
3:00 2032m -2°C -2_3 0cm 93% 3mph 3mph 1028mB
6:00 2275m -2°C -2_3 0cm 93% 3mph 3mph 1027mB
9:00 2605m 1°C 1_4 0cm 82% 4mph 4mph 1025mB
12:00 2759m 5°C 5_4 0cm 83% 4mph 5mph 1023mB
15:00 2826m 5°C 5_4 0cm 90% 4mph 5mph 1022mB
18:00 2810m 6°C 6_3 0cm 76% 3mph 4mph 1022mB
21:00 2733m 2°C 2_3 0cm 66% 3mph 4mph 1023mB
0:00 2803m 1°C 1_5 0cm 78% 5mph 6mph 1022mB
3:00 2200m 0°C 0_6 0cm 92% 6mph 7mph 1020mB
6:00 2867m 0°C 0_6 0cm 93% 6mph 7mph 1019mB
9:00 2847m 2°C 2_6 0cm 86% 6mph 9mph 1016mB
12:00 2941m 9°C 9_8 0cm 75% 8mph 11mph 1013mB
15:00 2930m 9°C 9_9 0cm 96% 9mph 13mph 1011mB
18:00 2703m 9°C 9_9 0cm 97% 9mph 15mph 1010mB
21:00 2758m 3°C 3_8 0cm 100% 8mph 11mph 1011mB
0:00 2560m 2°C 2_8 0cm 99% 8mph 11mph 1011mB
3:00 2336m 1°C 1_8 2cm 100% 8mph 11mph 1010mB
6:00 1953m -2°C -2_8 2cm 99% 8mph 11mph 1010mB
9:00 1807m -3°C -3_7 2cm 99% 7mph 9mph 1010mB
12:00 1983m 0°C 0_7 1cm 97% 7mph 8mph 1009mB
15:00 2012m 0°C 0_6 1cm 97% 6mph 8mph 1009mB
18:00 1828m 0°C 0_6 1cm 97% 6mph 9mph 1010mB
21:00 1605m -4°C -4_4 1cm 91% 4mph 6mph 1013mB
0:00 1296m -6°C -6_2 1cm 76% 2mph 2mph 1014mB
3:00 1147m -6°C -6_2 0cm 44% 2mph 2mph 1015mB
6:00 1524m -7°C -7_3 0cm 43% 3mph 4mph 1015mB
9:00 2010m -4°C -4_6 0cm 31% 6mph 6mph 1014mB
12:00 2182m 1°C 1_7 1cm 55% 7mph 7mph 1012mB
15:00 2217m 2°C 2_6 1cm 94% 6mph 7mph 1010mB
18:00 1973m 2°C 2_4 1cm 78% 4mph 6mph 1011mB
21:00 1675m -4°C -4_3 0cm 66% 3mph 3mph 1013mB
0:00 1714m -4°C -4_5 0cm 82% 5mph 6mph 1012mB
Afternoon 0.00520833mm 0.0625 2313m 7°C 7_8 0cm 52% 8mph 8mph 1009mB
Morning 0.0104167mm 0.0625 2337m 0°C 0_7 0cm 32% 7mph 10mph 1011mB
Afternoon 0mm 0 2660m 10°C 10_6 0cm 34% 6mph 8mph 1007mB
Morning 0.00520833mm 0 2515m 3°C 3_10 0cm 83% 10mph 16mph 1007mB
Afternoon 0.015625mm 0 2728m 9°C 9_10 0cm 75% 10mph 13mph 1002mB
Morning 0.166667mm 0 2891m 4°C 4_9 0cm 90% 9mph 14mph 1003mB
Afternoon 1.57292mm 0.1875 2384m 5°C 5_1 0cm 95% 1mph 4mph 1000mB
Morning 2.09375mm 0.0625 1812m -1°C -1_7 17cm 100% 7mph 11mph 1003mB
Afternoon 0.203125mm 0.1875 2039m 2°C 2_9 2cm 100% 9mph 11mph 1006mB
Morning 0.244792mm 0.5 1472m -3°C -3_8 4cm 99% 8mph 12mph 1014mB
Afternoon 0.270833mm 0.1875 1681m -1°C -1_9 2cm 98% 9mph 11mph 1015mB
Morning 0.0729167mm 0.3125 609m -8°C -8_1 2cm 69% 1mph 3mph 1023mB

16 day outlook at a glance

Forecast issued: 22/04/2019 08:11:07

Chat

Your comments and questions. In a resort? Let us know what it's like!


Characters left 250

For terms and conditions see Readers Comments on the Cookie and privacy policy page.